FW9036 Weather Reports


Display with metric or nautical units.
time (UTC)temp
F
wind
direction
speed
MPH
gust
MPH
rain 1hr
in
rain 24hr
in
rain mn
in
humidity
%
barometer
mb
20240518055220 76 172 0.0 4.0 0.00 0.00 0.00 89 1012.7
20240518054720 76 112 2.0 4.0 0.00 0.00 0.00 89 1012.6
20240518054218 76 106 3.0 7.0 0.00 0.00 0.00 89 1012.5
20240518053715 76 122 4.0 6.0 0.00 0.00 0.00 89 1012.3
20240518053212 76 161 5.0 7.0 0.00 0.00 0.00 88 1012.9
20240518052712 76 160 3.0 3.0 0.00 0.00 0.00 89 1013.8
20240518052210 76 180 0.0 1.0 0.00 0.00 0.00 88 1014.4
20240518051709 76 180 1.0 2.0 0.00 0.00 0.00 88 1014.4
20240518051207 76 103 0.0 3.0 0.00 0.00 0.00 88 1014.8
20240518050707 77 154 1.0 2.0 0.00 0.00 0.00 88 1015.3
20240518050206 77 97 0.0 1.0 0.00 0.00 0.00 87 1015.3
20240518045705 77 337 0.0 2.0 0.00 0.00 0.00 87 1015.2
20240518045201 77 106 0.0 2.0 0.00 0.00 0.00 87 1015.5
20240518044700 77 350 2.0 3.0 0.00 0.00 0.00 88 1015.9
20240518044159 77 346 1.0 4.0 0.00 0.00 0.00 89 1015.9
20240518043657 77 114 0.0 0.0 0.00 0.00 0.00 90 1015.6
20240518043156 77 105 0.0 1.0 0.00 0.00 0.00 90 1015.6
20240518042655 76 114 0.0 2.0 0.00 0.00 0.00 90 1015.4
20240518042155 76 90 0.0 0.0 0.00 0.00 0.00 90 1015.7
20240518041654 76 90 0.0 0.0 0.00 0.00 0.00 90 1015.8
20240518041152 76 90 0.0 0.0 0.00 0.00 0.00 90 1015.9
20240518040652 76 90 0.0 0.0 0.00 0.00 0.00 90 1015.7
20240518040150 76 90 0.0 0.0 0.00 0.00 0.00 90 1015.7
20240518035649 76 90 0.0 0.0 0.00 0.02 0.02 90 1015.7
20240518035148 76 90 0.0 0.0 0.00 0.02 0.02 89 1015.6
20240518034647 76 90 0.0 0.0 0.00 0.02 0.02 89 1015.6
20240518034145 76 90 0.0 0.0 0.00 0.02 0.02 89 1015.6
20240518033645 76 90 0.0 0.0 0.00 0.02 0.02 89 1015.3
20240518033144 77 90 0.0 0.0 0.00 0.02 0.02 88 1015.2
20240518032643 77 90 0.0 0.0 0.00 0.02 0.02 88 1015.2
20240518032141 77 90 0.0 1.0 0.00 0.02 0.02 88 1015.1
20240518031640 77 90 0.0 0.0 0.00 0.02 0.02 88 1015.0
20240518031139 77 103 0.0 2.0 0.00 0.02 0.02 88 1014.7
20240518030638 77 98 0.0 1.0 0.00 0.02 0.02 88 1014.5
20240518030136 77 99 0.0 0.0 0.00 0.02 0.02 88 1014.8
20240518025634 77 261 0.0 0.0 0.00 0.02 0.02 88 1014.8
20240518025133 77 261 0.0 0.0 0.00 0.02 0.02 88 1014.9
20240518024632 77 173 0.0 0.0 0.00 0.02 0.02 87 1015.0
20240518024130 77 106 1.0 1.0 0.00 0.02 0.02 86 1014.6
20240518023629 77 105 0.0 2.0 0.00 0.02 0.02 86 1014.6
20240518023127 77 106 1.0 2.0 0.00 0.02 0.02 86 1014.6
20240518022625 77 98 0.0 2.0 0.00 0.02 0.02 86 1014.3
20240518022124 77 111 1.0 3.0 0.00 0.02 0.02 86 1014.3
20240518021623 77 101 0.0 3.0 0.00 0.02 0.02 86 1014.2
20240518021122 78 96 0.0 2.0 0.00 0.02 0.02 86 1014.1
20240518020620 78 99 0.0 1.0 0.00 0.02 0.02 85 1014.2
20240518020118 78 96 2.0 2.0 0.00 0.02 0.02 85 1014.0
20240518015616 78 140 0.0 4.0 0.00 0.02 0.02 85 1014.0
20240518015116 78 120 1.0 3.0 0.00 0.02 0.02 85 1014.1
20240518014615 78 114 0.0 3.0 0.00 0.02 0.02 84 1014.0
20240518014114 78 100 2.0 2.0 0.00 0.02 0.02 84 1013.9
20240518013613 78 98 1.0 2.0 0.00 0.02 0.02 85 1014.2
20240518013111 78 106 0.0 0.0 0.00 0.02 0.02 84 1014.2
20240518012610 78 99 0.0 0.0 0.00 0.02 0.02 84 1013.9
20240518012110 79 90 0.0 0.0 0.00 0.02 0.02 83 1014.0
20240518011608 79 99 0.0 2.0 0.00 0.02 0.02 83 1013.7
20240518011109 79 126 1.0 2.0 0.00 0.02 0.02 83 1013.8
20240518010608 79 90 0.0 0.0 0.00 0.02 0.02 82 1013.8
20240518010106 79 75 0.0 1.0 0.00 0.02 0.02 82 1013.6
20240518005605 79 90 0.0 1.0 0.00 0.02 0.02 82 1013.4
20240518005103 80 157 0.0 3.0 0.00 0.02 0.02 82 1013.3
20240518004602 80 90 0.0 0.0 0.00 0.02 0.02 82 1013.6
20240518004100 80 105 0.0 3.0 0.00 0.02 0.02 81 1013.4
20240518003600 80 99 1.0 2.0 0.00 0.02 0.02 81 1013.4
20240518003059 80 151 0.0 3.0 0.00 0.02 0.02 81 1013.3
20240518002558 80 108 3.0 4.0 0.00 0.02 0.02 81 1013.0
20240518002057 80 110 0.0 3.0 0.00 0.02 0.02 80 1013.3
20240518001557 80 106 0.0 1.0 0.00 0.02 0.02 80 1012.9
20240518001056 81 114 0.0 1.0 0.00 0.02 0.02 79 1013.1
20240518000555 81 99 0.0 1.0 0.00 0.02 0.02 78 1013.2
20240518000055 81 103 1.0 2.0 0.00 0.02 0.02 78 1013.0
20240517235554 81 98 1.0 1.0 0.00 0.02 0.02 78 1012.9
20240517235052 81 107 2.0 2.0 0.00 0.02 0.02 79 1013.0
20240517234552 82 90 0.0 2.0 0.00 0.02 0.02 78 1012.9
20240517234051 82 111 0.0 2.0 0.00 0.02 0.02 78 1013.0
20240517233550 83 90 0.0 2.0 0.00 0.02 0.02 76 1013.0
20240517233048 83 95 2.0 2.0 0.00 0.02 0.02 76 1013.0
20240517232546 83 90 1.0 2.0 0.00 0.02 0.02 75 1013.2
20240517232046 84 82 1.0 2.0 0.00 0.02 0.02 75 1013.1
20240517231545 84 81 2.0 3.0 0.00 0.02 0.02 74 1013.0
20240517231044 85 71 2.0 4.0 0.00 0.02 0.02 74 1013.2
20240517230543 85 87 3.0 4.0 0.00 0.02 0.02 72 1013.1
20240517230043 86 66 2.0 3.0 0.00 0.02 0.02 70 1013.0
20240517225542 86 90 0.0 2.0 0.00 0.02 0.02 71 1012.9
20240517225042 87 99 2.0 3.0 0.00 0.02 0.02 70 1012.8
20240517224542 86 66 3.0 4.0 0.00 0.02 0.02 69 1012.9
20240517224041 86 123 2.0 3.0 0.00 0.02 0.02 67 1012.9
20240517223540 87 82 0.0 3.0 0.00 0.02 0.02 65 1012.7
20240517223039 88 81 1.0 2.0 0.00 0.02 0.02 60 1012.6
20240517222537 87 0 0.0 1.0 0.00 0.02 0.02 59 1012.8
20240517222036 87 35 0.0 3.0 0.00 0.02 0.02 58 1012.7
20240517221535 87 90 0.0 0.0 0.00 0.02 0.02 59 1012.8
20240517221032 88 18 0.0 2.0 0.00 0.02 0.02 59 1012.7
20240517220531 88 90 0.0 2.0 0.00 0.02 0.02 58 1012.4
20240517220029 87 84 2.0 2.0 0.00 0.02 0.02 60 1012.5
20240517215527 88 74 0.0 2.0 0.00 0.02 0.02 59 1012.6
20240517215025 88 54 0.0 2.0 0.00 0.02 0.02 58 1012.7
20240517214522 89 82 0.0 2.0 0.00 0.02 0.02 56 1012.7
20240517214021 89 3 3.0 3.0 0.00 0.02 0.02 57 1012.9
20240517213519 87 95 2.0 2.0 0.00 0.02 0.02 61 1013.0
20240517213017 87 117 0.0 1.0 0.00 0.02 0.02 60 1012.8
20240517212516 86 7 2.0 3.0 0.00 0.02 0.02 62 1012.7
20240517212015 87 154 0.0 3.0 0.00 0.02 0.02 61 1012.7
20240517211515 90 78 0.0 2.0 0.00 0.02 0.02 57 1012.9
20240517211014 89 71 2.0 3.0 0.00 0.02 0.02 57 1012.7
20240517210512 88 29 3.0 5.0 0.00 0.02 0.02 59 1012.7
20240517210011 88 17 3.0 5.0 0.00 0.02 0.02 60 1012.9
20240517205509 88 42 3.0 5.0 0.00 0.02 0.02 60 1013.0
20240517205008 88 161 3.0 4.0 0.00 0.02 0.02 61 1012.9
20240517204508 87 151 0.0 3.0 0.00 0.02 0.02 63 1012.7
20240517204006 87 120 2.0 2.0 0.00 0.02 0.02 63 1012.9
20240517203505 88 166 2.0 3.0 0.00 0.02 0.02 62 1012.7
20240517203004 88 35 1.0 3.0 0.00 0.02 0.02 62 1012.8
20240517202503 87 0 2.0 4.0 0.00 0.02 0.02 63 1012.9
20240517202002 86 23 3.0 4.0 0.00 0.02 0.02 65 1012.8
20240517201501 86 170 0.0 6.0 0.00 0.02 0.02 66 1012.8
20240517201000 87 20 3.0 4.0 0.00 0.02 0.02 65 1013.1
20240517200500 87 60 0.0 3.0 0.00 0.02 0.02 66 1012.8
20240517195957 86 141 0.0 3.0 0.00 0.02 0.02 67 1012.7
20240517195455 86 292 2.0 5.0 0.00 0.02 0.02 68 1013.2
20240517194954 86 127 2.0 4.0 0.00 0.02 0.02 66 1013.2
20240517194453 87 169 3.0 3.0 0.00 0.02 0.02 66 1013.3
20240517193952 86 90 0.0 2.0 0.00 0.02 0.02 69 1013.1
20240517193452 85 300 0.0 4.0 0.00 0.02 0.02 69 1013.1
20240517192952 85 66 0.0 5.0 0.00 0.02 0.02 70 1013.1
20240517192449 84 39 4.0 5.0 0.00 0.02 0.02 71 1013.3
20240517191948 84 313 0.0 4.0 0.00 0.02 0.02 71 1013.3
20240517191447 84 32 5.0 5.0 0.00 0.02 0.02 71 1013.2
20240517190946 83 45 2.0 5.0 0.00 0.02 0.02 73 1013.5
20240517190445 83 310 3.0 3.0 0.00 0.02 0.02 74 1013.4
20240517185944 83 28 3.0 3.0 0.00 0.02 0.02 74 1013.4
20240517185444 83 90 0.0 2.0 0.00 0.02 0.02 74 1013.3
20240517184943 82 0 0.0 2.0 0.00 0.02 0.02 75 1013.7
20240517184442 82 188 1.0 3.0 0.00 0.02 0.02 75 1013.1
20240517183942 82 352 1.0 2.0 0.00 0.02 0.02 77 1013.4
20240517183441 81 353 2.0 3.0 0.00 0.02 0.02 77 1013.4
20240517182940 82 41 0.0 2.0 0.00 0.02 0.02 76 1013.4
20240517182439 81 90 0.0 2.0 0.00 0.02 0.02 77 1013.4
20240517181938 82 346 1.0 2.0 0.00 0.02 0.02 76 1013.5
20240517181437 82 48 0.0 3.0 0.00 0.02 0.02 75 1013.2
20240517180936 82 85 2.0 2.0 0.00 0.02 0.02 75 1013.3
20240517180435 81 146 3.0 4.0 0.00 0.02 0.02 76 1013.5
20240517175934 83 16 2.0 3.0 0.00 0.02 0.02 74 1013.4
20240517175433 82 340 0.0 3.0 0.00 0.02 0.02 75 1013.1
20240517174934 82 90 3.0 5.0 0.00 0.02 0.02 76 1013.2
20240517174434 82 126 1.0 3.0 0.00 0.02 0.02 78 1013.2
20240517173933 80 106 0.0 2.0 0.00 0.02 0.02 80 1013.2
20240517173431 80 270 0.0 2.0 0.00 0.02 0.02 80 1012.8
20240517172931 79 163 2.0 3.0 0.00 0.02 0.02 80 1013.1
20240517172414 79 255 0.0 4.0 0.00 0.02 0.02 80 1012.7
20240517171912 80 90 1.0 3.0 0.00 0.02 0.02 80 1012.4
20240517171411 80 180 0.0 3.0 0.00 0.02 0.02 81 1012.3
20240517170911 79 30 2.0 4.0 0.00 0.02 0.02 81 1012.4
20240517170409 80 162 0.0 3.0 0.00 0.02 0.02 81 1012.2
20240517165906 79 81 1.0 1.0 0.00 0.02 0.02 83 1012.2
20240517165404 79 102 3.0 3.0 0.00 0.02 0.02 84 1012.2
20240517164855 79 0 0.0 3.0 0.00 0.02 0.02 84 1012.0
20240517164353 78 106 2.0 2.0 0.00 0.02 0.02 85 1011.6
20240517163852 78 300 0.0 3.0 0.02 0.02 0.02 86 1011.2
20240517163352 77 82 1.0 2.0 0.02 0.02 0.02 87 1011.0
20240517162851 77 261 0.0 1.0 0.00 0.01 0.01 89 1010.9
20240517162351 77 165 0.0 2.0 0.00 0.01 0.01 90 1010.6
20240517161850 77 355 0.0 3.0 0.00 0.01 0.01 91 1010.0
20240517161348 76 78 0.0 3.0 0.00 0.01 0.01 91 1009.5
20240517160849 75 16 2.0 3.0 0.00 0.01 0.01 92 1009.4
20240517160348 75 90 0.0 5.0 0.00 0.01 0.01 92 1009.5
20240517155847 75 109 1.0 3.0 0.00 0.01 0.01 93 1009.4
20240517155345 75 102 2.0 3.0 0.00 0.01 0.01 93 1010.5
20240517154846 74 32 0.0 2.0 0.00 0.01 0.01 93 1011.1
20240517154345 75 90 0.0 1.0 0.00 0.01 0.01 94 1011.5
20240517153844 74 96 2.0 2.0 0.00 0.01 0.01 94 1011.5
20240517153344 74 30 0.0 4.0 0.00 0.01 0.01 95 1011.5
20240517152844 73 212 2.0 5.0 0.00 0.01 0.01 94 1010.3
20240517152343 74 106 3.0 8.0 0.00 0.01 0.01 93 1010.9
20240517151841 74 130 3.0 4.0 0.00 0.01 0.01 93 1012.4
20240517151340 74 168 0.0 2.0 0.00 0.01 0.01 92 1012.9
20240517150838 74 105 0.0 2.0 0.00 0.01 0.01 91 1013.3
20240517150336 74 198 1.0 3.0 0.00 0.01 0.01 91 1013.9
20240517145835 75 282 0.0 2.0 0.00 0.01 0.01 90 1013.9
20240517145334 75 151 0.0 3.0 0.00 0.01 0.01 90 1013.9
20240517144832 75 270 2.0 3.0 0.00 0.01 0.01 89 1013.8
20240517144331 75 198 0.0 3.0 0.00 0.01 0.01 89 1014.0
20240517143828 75 198 0.0 2.0 0.00 0.01 0.01 88 1014.1
20240517143326 75 286 0.0 0.0 0.00 0.01 0.01 88 1013.9
20240517142825 75 180 0.0 1.0 0.00 0.01 0.01 88 1014.1
20240517142324 75 90 0.0 1.0 0.00 0.01 0.01 88 1014.2
20240517141819 75 172 0.0 2.0 0.00 0.01 0.01 88 1014.3
20240517141318 75 180 0.0 1.0 0.00 0.01 0.01 88 1014.4
20240517140817 75 162 0.0 2.0 0.00 0.01 0.01 88 1014.4
20240517140315 75 180 1.0 3.0 0.00 0.01 0.01 88 1014.8
20240517135813 75 180 0.0 0.0 0.00 0.01 0.01 88 1014.7
20240517135312 75 300 0.0 3.0 0.00 0.01 0.01 87 1014.6
20240517134811 75 291 0.0 2.0 0.00 0.01 0.01 87 1014.7
20240517134309 75 174 0.0 2.0 0.00 0.01 0.01 87 1014.9
20240517133808 75 279 0.0 2.0 0.00 0.01 0.01 88 1014.9
20240517133305 75 90 2.0 3.0 0.00 0.01 0.01 87 1014.7
20240517132804 75 278 0.0 3.0 0.00 0.01 0.01 88 1014.9
20240517132303 75 188 0.0 2.0 0.00 0.01 0.01 88 1014.9
20240517131801 74 8 0.0 2.0 0.00 0.01 0.01 88 1014.9
20240517131259 74 18 0.0 2.0 0.00 0.01 0.01 89 1015.0
20240517130757 74 200 0.0 1.0 0.00 0.01 0.01 89 1014.9
20240517130256 74 291 1.0 1.0 0.00 0.01 0.01 90 1014.6
20240517125754 74 14 0.0 3.0 0.00 0.01 0.01 90 1014.7
20240517125253 74 297 0.0 2.0 0.00 0.01 0.01 90 1014.7
20240517124751 74 311 0.0 2.0 0.00 0.01 0.01 90 1014.3
20240517124250 74 286 0.0 3.0 0.00 0.01 0.01 90 1014.3
20240517123750 74 180 0.0 0.0 0.00 0.01 0.01 90 1014.0
20240517123248 74 346 0.0 2.0 0.00 0.01 0.01 90 1013.8
20240517122748 73 285 0.0 2.0 0.00 0.01 0.01 90 1013.8
20240517122247 73 320 2.0 2.0 0.00 0.01 0.01 90 1013.8
20240517121745 73 278 0.0 2.0 0.02 0.01 0.01 90 1013.9
20240517121245 73 14 0.0 2.0 0.02 0.01 0.01 90 1013.7
20240517120744 73 35 0.0 3.0 0.00 0.01 0.01 90 1013.8
20240517120242 73 0 0.0 3.0 0.00 0.01 0.01 91 1014.1
20240517115741 73 274 3.0 5.0 0.00 0.01 0.01 91 1014.3
20240517115238 73 315 3.0 3.0 0.00 0.01 0.01 91 1014.0
20240517114737 73 307 2.0 3.0 0.00 0.01 0.01 92 1014.1
20240517114236 73 195 0.0 3.0 0.00 0.01 0.01 92 1014.1
20240517113736 72 81 0.0 3.0 0.02 0.01 0.01 93 1013.9
20240517113234 72 82 0.0 3.0 0.02 0.01 0.01 94 1013.8
20240517112732 72 169 2.0 3.0 0.00 0.00 0.00 95 1013.5
20240517112230 71 270 0.0 2.0 0.02 0.00 0.00 96 1013.6
20240517111729 71 90 0.0 0.0 0.04 0.00 0.00 96 1013.5
20240517111228 71 0 0.0 2.0 0.02 0.00 0.00 97 1013.6
20240517110726 71 0 0.0 0.0 0.00 0.00 0.00 97 1013.5
20240517110225 71 0 0.0 2.0 0.00 0.00 0.00 97 1013.4
20240517105723 71 198 1.0 2.0 0.00 0.00 0.00 98 1013.4
20240517105221 71 187 0.0 1.0 0.00 0.00 0.00 98 1013.2
20240517104719 71 261 0.0 2.0 0.00 0.00 0.00 98 1013.5
20240517104217 71 74 0.0 1.0 0.00 0.00 0.00 98 1013.1
20240517103714 70 270 0.0 1.0 0.00 0.00 0.00 98 1013.4
20240517103157 70 74 0.0 0.0 0.00 0.00 0.00 97 1013.1
20240517102655 70 74 0.0 0.0 0.00 0.00 0.00 97 1013.1
20240517102154 70 74 0.0 0.0 0.00 0.00 0.00 97 1012.7
20240517101654 70 74 0.0 0.0 0.00 0.00 0.00 97 1012.6
20240517101154 70 74 0.0 0.0 0.00 0.00 0.00 98 1012.2
20240517100653 70 74 0.0 0.0 0.00 0.00 0.00 97 1012.1
20240517100150 70 74 0.0 0.0 0.00 0.00 0.00 97 1011.9
20240517095649 70 74 0.0 0.0 0.00 0.00 0.00 97 1011.7
20240517095147 70 74 0.0 0.0 0.00 0.00 0.00 97 1011.6
20240517094645 70 74 0.0 0.0 0.00 0.00 0.00 97 1011.7
20240517094144 70 74 0.0 0.0 0.00 0.00 0.00 97 1011.5
20240517093643 70 74 0.0 0.0 0.00 0.00 0.00 97 1011.6
20240517093143 70 74 0.0 0.0 0.00 0.00 0.00 96 1011.5
20240517092642 70 74 0.0 0.0 0.00 0.00 0.00 96 1011.5
20240517092140 70 74 0.0 0.0 0.00 0.00 0.00 96 1011.6
20240517091639 70 74 0.0 0.0 0.00 0.00 0.00 96 1011.5
20240517091136 70 74 0.0 0.0 0.00 0.00 0.00 96 1011.5
20240517090636 70 74 0.0 0.0 0.00 0.00 0.00 96 1011.2
20240517090135 70 74 0.0 0.0 0.00 0.00 0.00 96 1011.4
20240517085634 70 74 0.0 0.0 0.00 0.00 0.00 96 1011.1
20240517085133 71 74 0.0 0.0 0.00 0.00 0.00 95 1011.0
20240517084631 71 74 0.0 0.0 0.00 0.00 0.00 95 1010.8
20240517084130 71 74 0.0 0.0 0.00 0.00 0.00 95 1010.7
20240517083628 71 74 0.0 0.0 0.00 0.00 0.00 95 1011.0
20240517083127 71 74 0.0 0.0 0.00 0.00 0.00 95 1010.8
20240517082627 71 74 0.0 0.0 0.00 0.00 0.00 95 1010.8
20240517082126 71 74 0.0 0.0 0.00 0.00 0.00 95 1011.0
20240517081624 71 74 0.0 0.0 0.00 0.00 0.00 94 1010.7
20240517081123 71 74 0.0 0.0 0.00 0.00 0.00 94 1011.0
20240517080620 71 74 0.0 0.0 0.00 0.00 0.00 94 1010.7
20240517080118 71 74 0.0 0.0 0.00 0.00 0.00 93 1010.8
20240517075617 71 74 0.0 0.0 0.00 0.00 0.00 93 1010.7
20240517075114 71 74 0.0 0.0 0.00 0.00 0.00 93 1010.7
20240517074612 72 74 0.0 0.0 0.00 0.00 0.00 92 1010.6
20240517074110 72 74 0.0 0.0 0.00 0.00 0.00 92 1010.7
20240517073608 73 74 0.0 0.0 0.00 0.00 0.00 92 1010.7
20240517073108 72 108 0.0 2.0 0.00 0.00 0.00 92 1010.6
20240517072607 73 103 0.0 2.0 0.00 0.00 0.00 92 1010.6
20240517072107 73 90 0.0 1.0 0.00 0.00 0.00 92 1010.7
20240517071605 73 106 1.0 2.0 0.00 0.00 0.00 91 1010.8
20240517071104 73 99 0.0 1.0 0.00 0.00 0.00 91 1010.9
20240517070602 73 105 0.0 2.0 0.00 0.00 0.00 91 1010.9
20240517070100 73 90 1.0 2.0 0.00 0.00 0.00 91 1010.9
20240517065558 73 90 0.0 1.0 0.00 0.00 0.00 91 1010.9
20240517065056 73 81 0.0 1.0 0.00 0.00 0.00 91 1010.8
20240517064556 73 105 0.0 2.0 0.00 0.00 0.00 91 1010.9
20240517064055 73 114 0.0 2.0 0.00 0.00 0.00 90 1011.0
20240517063554 74 148 0.0 2.0 0.00 0.00 0.00 90 1010.9
20240517063052 74 82 0.0 1.0 0.00 0.00 0.00 90 1011.3
20240517062553 74 95 0.0 2.0 0.00 0.00 0.00 90 1011.3
20240517062051 74 101 0.0 0.0 0.00 0.00 0.00 89 1011.6
20240517061549 74 114 3.0 3.0 0.00 0.00 0.00 89 1011.5
20240517061047 74 84 0.0 2.0 0.00 0.00 0.00 89 1011.6
20240517060543 74 74 0.0 1.0 0.00 0.00 0.00 89 1011.9
20240517060041 75 109 0.0 2.0 0.00 0.00 0.00 88 1011.6